Location: Klein M�hlingen
(51.9472°N, 11.7453°E)
Time: 06:59:42
(UTC+00:00)

Cosmos 1300 - Pass Details

Date: 09 April 2020
Orbit: 511 x 515 km, 82.5° (Epoch: 02 June)

Event Time Altitude Azimuth Distance (km) Brightness Sun altitude
Exits shadow 20:18:27 - 212° (SSW) 2,656 6.2 -19.3°
Rises 20:18:32 0° 212° (SSW) 2,621 6.2 -19.3°
Reaches altitude 10° 20:20:48 10° 222° (SW) 1,740 5.3 -19.5°
Maximum altitude 20:24:18 34° 288° (WNW) 875 4.4 -19.9°
Drops below altitude 10° 20:27:50 10° 355° (N) 1,755 6.1 -20.3°
Sets 20:30:07 0° 5° (N) 2,648 6.9 -20.5°
